Burlington, VT

2:54 PM EDT on May 28, 2017 (GMT -0400)
Burlington International

Weather History for KBTV - April, 2013

Change the Weather History Date:

Sunday, April 28, 2013

  Actual Average Record
Temperature  
Mean Temperature 54 °F 50 °F  
Max Temperature 73 °F 61 °F 90 °F (1990)
Min Temperature 35 °F 40 °F 24 °F (1947)
Degree Days  
Heating Degree Days 11 15  
Month to date heating degree days 594 582  
Since 1 July heating degree days 6460 7046  
Cooling Degree Days 0 0  
Month to date cooling degree days 0 0  
Year to date cooling degree days 0 0  
Growing Degree Days 4 (Base 50)    
Moisture  
Dew Point 30 °F    
Average Humidity 48    
Maximum Humidity 76    
Minimum Humidity 19    
Precipitation  
Precipitation 0.00 in 0.10 in 1.05 in (1920)
Month to date precipitation 2.05 2.61  
Year to date precipitation 6.53 8.65  
Snow  
Snow 0.00 in 0.10 in 2.70 in (2010)
Month to date snowfall 1.0 4.5  
Since 1 July snowfall 82.9 81.1  
Snow Depth 0.00 in    
Sea Level Pressure  
Sea Level Pressure 30.22 in    
Wind  
Wind Speed 5 mph (South)    
Max Wind Speed 14 mph    
Max Gust Speed 18 mph    
Visibility 10 miles    
Events      
T = Trace of Precipitation, MM = Missing Value Source: NWS Daily Summary

Daily Weather History Graph

Daily Weather History Graph

Search for Another Location

Airport or City:

Trip Planner

Search our weather history database for the weather conditions in past years. The results will help you decide how hot, cold, wet, or windy it might be!

Date:

Astronomy

Apr. 28, 2013 Rise Set
Actual Time 5:47 AM EDT 7:53 PM EDT
Civil Twilight 5:15 AM EDT 8:25 PM EDT
Nautical Twilight 4:36 AM EDT 9:04 PM EDT
Astronomical Twilight 3:53 AM EDT 9:47 PM EDT
Moon 11:25 PM EDT 7:56 AM EDT
Length of Visible Light 15h 09m
Length of Day
14h 06m
Waning Gibbous, 89% of the Moon is Illuminated
Apr 28
Waning Gibbous
May 2
Last Quarter
May 9
New
May 18
First Quarter
May 25
Full

Hourly Weather History & Observations

Time (EDT) Temp. Windchill Dew Point Humidity Pressure Visibility Wind Dir Wind Speed Gust Speed Precip Events Conditions
12:54 AM 42.1 °F 38.4 °F 30.0 °F 62% 30.32 in 10.0 mi ENE 5.8 mph - N/A   Clear
1:54 AM 41.0 °F 39.0 °F 28.9 °F 62% 30.32 in 10.0 mi NE 3.5 mph - N/A   Clear
2:54 AM 39.9 °F - 28.9 °F 65% 30.31 in 10.0 mi Calm Calm - N/A   Clear
3:54 AM 37.0 °F - 28.9 °F 73% 30.30 in 10.0 mi Calm Calm - N/A   Clear
4:54 AM 35.1 °F - 28.9 °F 78% 30.29 in 10.0 mi Calm Calm - N/A   Clear
5:54 AM 36.0 °F - 28.9 °F 76% 30.29 in 10.0 mi Calm Calm - N/A   Clear
6:54 AM 37.9 °F - 30.0 °F 73% 30.29 in 10.0 mi Calm Calm - N/A   Clear
7:54 AM 46.0 °F - 32.0 °F 58% 30.31 in 10.0 mi Calm Calm - N/A   Clear
8:54 AM 53.6 °F - 30.2 °F 41% 30.31 in 10.0 mi South 5.8 mph - N/A   Clear
9:54 AM 60.1 °F - 30.0 °F 32% 30.29 in 10.0 mi Variable 6.9 mph - N/A   Clear
10:54 AM 64.0 °F - 28.9 °F 27% 30.27 in 10.0 mi South 8.1 mph - N/A   Clear
11:54 AM 66.9 °F - 30.9 °F 26% 30.26 in 10.0 mi SW 10.4 mph 18.4 mph N/A   Clear
12:54 PM 69.1 °F - 32.0 °F 25% 30.24 in 10.0 mi South 10.4 mph 16.1 mph N/A   Clear
1:54 PM 69.1 °F - 30.9 °F 24% 30.21 in 10.0 mi SSW 6.9 mph - N/A   Clear
2:54 PM 70.0 °F - 30.9 °F 24% 30.19 in 10.0 mi SSW 8.1 mph - N/A   Clear
3:54 PM 73.0 °F - 30.0 °F 20% 30.16 in 10.0 mi SSW 5.8 mph - N/A   Clear
4:54 PM 72.0 °F - 30.9 °F 22% 30.14 in 10.0 mi NW 6.9 mph - N/A   Clear
5:54 PM 72.0 °F - 27.0 °F 19% 30.13 in 10.0 mi Variable 4.6 mph - N/A   Clear
6:54 PM 71.1 °F - 28.9 °F 21% 30.12 in 10.0 mi South 4.6 mph - N/A   Clear
7:54 PM 66.9 °F - 28.9 °F 24% 30.11 in 10.0 mi SSE 3.5 mph - N/A   Clear
8:54 PM 61.0 °F - 32.0 °F 34% 30.11 in 10.0 mi South 3.5 mph - N/A   Clear
9:54 PM 57.9 °F - 35.1 °F 42% 30.12 in 10.0 mi East 3.5 mph - N/A   Clear
10:54 PM 59.0 °F - 34.0 °F 39% 30.11 in 10.0 mi ESE 9.2 mph - N/A   Clear
11:54 PM 60.1 °F - 33.1 °F 36% 30.12 in 10.0 mi SSE 8.1 mph - N/A   Clear